When you browse on this site, cookies collect data to enhance your experience and personalize the content and advertising you see.
Visit our Privacy Policy to learn more. By continuing to use the site, you agree to this use of cookies and data.
  • în România
  • Lista ţărilor
  • Pe 7 zile
  • Temperatura apei
  • Hartă satelitară
  • Meteo pe hartă
  • Widget-uri
  • user-avatar
    Intrare

    Meteo pe oră la Barra

    Astăzi, 22 Februarie, Vineri

    Timp Temperatura Precipitaţii Vânt Presiune Umiditate
    00:00 +29°C° 0 mm 5 m/s 760 mmHg 20%
    01:00 +28°C° 0 mm 5 m/s 760 mmHg 20%
    02:00 +28°C° 0 mm 4 m/s 760 mmHg 20%
    03:00 +27°C° 0 mm 4 m/s 760 mmHg 19%
    04:00 +27°C° 0 mm 4 m/s 759 mmHg 18%
    05:00 +26°C° 0 mm 4 m/s 759 mmHg 17%
    06:00 +27°C° 0 mm 4 m/s 760 mmHg 16%
    07:00 +28°C° 0 mm 5 m/s 760 mmHg 15%
    08:00 +29°C° 0 mm 5 m/s 760 mmHg 14%
    09:00 +33°C° 0 mm 5 m/s 760 mmHg 12%
    10:00 +36°C° 0 mm 5 m/s 760 mmHg 11%
    11:00 +39°C° 0 mm 6 m/s 760 mmHg 9%
    12:00 +40°C° 0 mm 5 m/s 759 mmHg 9%
    13:00 +42°C° 0 mm 4 m/s 759 mmHg 9%
    14:00 +43°C° 0 mm 4 m/s 758 mmHg 9%
    15:00 +41°C° 0 mm 4 m/s 758 mmHg 11%
    16:00 +40°C° 0 mm 5 m/s 757 mmHg 14%
    17:00 +39°C° 0 mm 5 m/s 757 mmHg 17%
    18:00 +36°C° 0 mm 6 m/s 758 mmHg 20%
    19:00 +34°C° 0 mm 6 m/s 758 mmHg 24%
    20:00 +32°C° 0 mm 6 m/s 759 mmHg 28%
    21:00 +32°C° 0 mm 6 m/s 759 mmHg 25%
    22:00 +32°C° 0 mm 6 m/s 759 mmHg 22%
    23:00 +30°C° 0 mm 6 m/s 759 mmHg 19%

    Mâine, 23 Februarie, Sâmbătă

    Timp Temperatura Precipitaţii Vânt Presiune Umiditate
    00:00 +30°C° 0 mm 6 m/s 759 mmHg 18%
    01:00 +30°C° 0 mm 6 m/s 759 mmHg 17%
    02:00 +29°C° 0 mm 6 m/s 759 mmHg 16%
    03:00 +29°C° 0 mm 6 m/s 758 mmHg 15%
    04:00 +29°C° 0 mm 6 m/s 758 mmHg 14%
    05:00 +29°C° 0 mm 6 m/s 758 mmHg 13%
    06:00 +29°C° 0 mm 6 m/s 759 mmHg 12%
    07:00 +30°C° 0 mm 7 m/s 759 mmHg 11%
    08:00 +30°C° 0 mm 7 m/s 760 mmHg 11%
    09:00 +34°C° 0 mm 7 m/s 760 mmHg 10%
    10:00 +37°C° 0 mm 8 m/s 759 mmHg 8%
    11:00 +40°C° 0 mm 8 m/s 759 mmHg 7%
    12:00 +41°C° 0 mm 8 m/s 758 mmHg 8%
    13:00 +41°C° 0 mm 7 m/s 758 mmHg 8%
    14:00 +43°C° 0 mm 7 m/s 757 mmHg 9%
    15:00 +43°C° 0 mm 7 m/s 756 mmHg 10%
    16:00 +42°C° 0 mm 6 m/s 756 mmHg 11%
    17:00 +41°C° 0 mm 6 m/s 756 mmHg 11%
    18:00 +40°C° 0 mm 5 m/s 756 mmHg 13%
    19:00 +37°C° 0 mm 5 m/s 757 mmHg 15%
    20:00 +35°C° 0 mm 4 m/s 757 mmHg 16%
    21:00 +34°C° 0 mm 5 m/s 758 mmHg 16%
    22:00 +34°C° 0 mm 5 m/s 758 mmHg 15%
    23:00 +33°C° 0 mm 6 m/s 758 mmHg 14%

    Poimâine, 24 Februarie, Duminică

    Timp Temperatura Precipitaţii Vânt Presiune Umiditate
    00:00 +32°C° 0 mm 6 m/s 758 mmHg 14%
    01:00 +30°C° 0 mm 5 m/s 758 mmHg 13%
    02:00 +29°C° 0 mm 5 m/s 757 mmHg 13%
    03:00 +29°C° 0 mm 5 m/s 757 mmHg 12%
    04:00 +28°C° 0 mm 5 m/s 757 mmHg 12%
    05:00 +27°C° 0 mm 5 m/s 757 mmHg 12%
    06:00 +27°C° 0 mm 6 m/s 758 mmHg 12%
    07:00 +28°C° 0 mm 6 m/s 758 mmHg 11%
    08:00 +28°C° 0 mm 7 m/s 759 mmHg 11%
    09:00 +30°C° 0 mm 7 m/s 759 mmHg 10%
    10:00 +34°C° 0 mm 6 m/s 759 mmHg 9%
    11:00 +36°C° 0 mm 6 m/s 759 mmHg 8%
    12:00 +37°C° 0 mm 5 m/s 758 mmHg 8%
    13:00 +38°C° 0 mm 4 m/s 757 mmHg 8%
    14:00 +40°C° 0 mm 4 m/s 756 mmHg 7%
    15:00 +38°C° 0 mm 4 m/s 756 mmHg 8%
    16:00 +38°C° 0 mm 4 m/s 755 mmHg 9%
    17:00 +37°C° 0 mm 4 m/s 755 mmHg 9%
    18:00 +35°C° 0 mm 5 m/s 756 mmHg 17%
    19:00 +32°C° 0 mm 5 m/s 756 mmHg 24%
    20:00 +28°C° 0 mm 6 m/s 757 mmHg 31%
    21:00 +28°C° 0 mm 6 m/s 757 mmHg 28%
    22:00 +27°C° 0 mm 6 m/s 757 mmHg 24%
    23:00 +27°C° 0 mm 6 m/s 758 mmHg 21%

    25 Februarie, Luni

    Timp Temperatura Precipitaţii Vânt Presiune Umiditate
    00:00 +26°C° 0 mm 5 m/s 757 mmHg 21%
    01:00 +25°C° 0 mm 4 m/s 757 mmHg 20%
    02:00 +23°C° 0 mm 4 m/s 757 mmHg 19%
    03:00 +23°C° 0 mm 4 m/s 757 mmHg 18%
    04:00 +23°C° 0 mm 4 m/s 757 mmHg 17%
    05:00 +22°C° 0 mm 4 m/s 757 mmHg 15%
    06:00 +23°C° 0 mm 5 m/s 757 mmHg 14%
    07:00 +25°C° 0 mm 5 m/s 758 mmHg 13%
    08:00 +26°C° 0 mm 6 m/s 758 mmHg 13%
    09:00 +29°C° 0 mm 6 m/s 758 mmHg 11%
    10:00 +33°C° 0 mm 6 m/s 759 mmHg 10%
    11:00 +36°C° 0 mm 6 m/s 759 mmHg 8%
    12:00 +36°C° 0 mm 5 m/s 758 mmHg 8%
    13:00 +37°C° 0 mm 4 m/s 757 mmHg 8%
    14:00 +38°C° 0 mm 3 m/s 756 mmHg 7%
    15:00 +38°C° 0 mm 4 m/s 755 mmHg 8%
    16:00 +37°C° 0 mm 4 m/s 755 mmHg 9%
    17:00 +37°C° 0 mm 5 m/s 755 mmHg 10%
    18:00 +34°C° 0 mm 5 m/s 756 mmHg 17%
    19:00 +32°C° 0 mm 6 m/s 756 mmHg 24%
    20:00 +28°C° 0 mm 6 m/s 757 mmHg 31%
    21:00 +28°C° 0 mm 6 m/s 757 mmHg 28%
    22:00 +27°C° 0 mm 6 m/s 757 mmHg 25%
    23:00 +27°C° 0 mm 6 m/s 757 mmHg 23%

    26 Februarie, Marţi

    Timp Temperatura Precipitaţii Vânt Presiune Umiditate
    00:00 +26°C° 0 mm 5 m/s 757 mmHg 24%
    01:00 +25°C° 0 mm 4 m/s 756 mmHg 24%
    02:00 +23°C° 0 mm 4 m/s 756 mmHg 25%
    03:00 +23°C° 0 mm 4 m/s 756 mmHg 23%
    04:00 +22°C° 0 mm 4 m/s 756 mmHg 20%
    05:00 +22°C° 0 mm 3 m/s 756 mmHg 17%
    06:00 +23°C° 0 mm 4 m/s 757 mmHg 16%
    07:00 +25°C° 0 mm 5 m/s 757 mmHg 14%
    08:00 +26°C° 0 mm 5 m/s 758 mmHg 13%
    09:00 +29°C° 0 mm 6 m/s 758 mmHg 11%
    10:00 +33°C° 0 mm 6 m/s 758 mmHg 9%
    11:00 +36°C° 0 mm 6 m/s 758 mmHg 7%
    12:00 +37°C° 0 mm 5 m/s 757 mmHg 7%
    13:00 +39°C° 0 mm 5 m/s 756 mmHg 7%
    14:00 +40°C° 0 mm 4 m/s 755 mmHg 7%
    15:00 +39°C° 0 mm 3 m/s 755 mmHg 7%
    16:00 +39°C° 0 mm 3 m/s 755 mmHg 8%
    17:00 +39°C° 0 mm 3 m/s 755 mmHg 8%
    18:00 +36°C° 0 mm 3 m/s 756 mmHg 14%
    19:00 +33°C° 0 mm 4 m/s 756 mmHg 20%
    20:00 +29°C° 0 mm 4 m/s 757 mmHg 26%
    21:00 +28°C° 0 mm 3 m/s 757 mmHg 27%
    22:00 +27°C° 0 mm 3 m/s 758 mmHg 28%
    23:00 +27°C° 0 mm 3 m/s 758 mmHg 30%

    27 Februarie, Miercuri

    Timp Temperatura Precipitaţii Vânt Presiune Umiditate
    00:00 +26°C° 0 mm 3 m/s 758 mmHg 26%
    01:00 +26°C° 0 mm 3 m/s 757 mmHg 23%
    02:00 +25°C° 0 mm 4 m/s 757 mmHg 20%
    03:00 +25°C° 0 mm 4 m/s 757 mmHg 18%
    04:00 +25°C° 0 mm 4 m/s 757 mmHg 16%
    05:00 +23°C° 0 mm 4 m/s 757 mmHg 15%
    06:00 +25°C° 0 mm 5 m/s 758 mmHg 14%
    07:00 +27°C° 0 mm 6 m/s 758 mmHg 12%
    08:00 +28°C° 0 mm 6 m/s 759 mmHg 11%
    09:00 +30°C° 0 mm 7 m/s 759 mmHg 10%
    10:00 +34°C° 0 mm 7 m/s 759 mmHg 9%
    11:00 +38°C° 0 mm 7 m/s 759 mmHg 8%
    12:00 +39°C° 0 mm 6 m/s 758 mmHg 7%
    13:00 +40°C° 0 mm 5 m/s 757 mmHg 7%
    14:00 +41°C° 0 mm 5 m/s 756 mmHg 7%
    15:00 +41°C° 0 mm 4 m/s 756 mmHg 7%
    16:00 +41°C° 0 mm 4 m/s 756 mmHg 8%
    17:00 +41°C° 0 mm 4 m/s 756 mmHg 8%
    18:00 +37°C° 0 mm 4 m/s 756 mmHg 13%
    19:00 +34°C° 0 mm 4 m/s 757 mmHg 17%
    20:00 +30°C° 0 mm 4 m/s 758 mmHg 22%
    21:00 +30°C° 0 mm 4 m/s 758 mmHg 20%
    22:00 +29°C° 0 mm 4 m/s 758 mmHg 18%
    23:00 +28°C° 0 mm 4 m/s 758 mmHg 16%
    Arată mai mult